[[{"header":{"parameterUnit":"m.s-1","parameterCategory":1,"la1":30.2991,"la2":30.254,"lo1":-89.0895,"lo2":-89.0444,"dy":0.0017,"dx":0.0017,"nx":28,"ny":28,"refTime":"2023-09-04T21:00:00:Z","depth":0,"parameterNumber":2,"parameterNumberName":"U-component_of_WINDS"},"data":[0,0,0,0,0,0,0,0,0,0,0,0,0,0,0,0,0,0,0,0,0,0,0,0,0,0,0,0,0,0,0,0,0,0,0,0,0,0,0,0,0,0,0,0,0,0,0,0,0,0,0,0,0,0,0,0,0,0,-0.1731,-0.173,0,-0.1699,-0.1698,-0.1698,-0.1655,-0.1654,-0.1653,-0.1652,-0.1621,-0.1621,-0.1621,0,0,0,0,0,0,0,0,0,0,0,0,0,-0.1755,-0.1755,-0.1731,-0.173,-0.173,-0.1699,-0.1698,-0.1698,-0.1655,-0.1654,-0.1653,-0.1652,-0.1621,-0.1621,-0.1621,0,0,0,0,0,0,0,0,0,0,0,0,0,-0.1736,-0.1755,-0.1731,-0.1705,-0.1702,-0.1699,-0.1698,-0.1698,-0.1655,-0.1654,-0.1653,-0.1652,-0.1621,-0.1621,-0.1621,-0.1641,0,0,-0.162,-0.162,0,0,0,0,0,0,0,0,-0.1737,-0.1735,-0.1709,-0.1706,-0.1703,-0.1679,-0.1695,-0.1679,-0.1655,-0.1673,-0.1652,-0.1651,-0.1641,-0.164,-0.1636,-0.164,-0.1638,-0.162,-0.162,-0.162,-0.162,0,0,0,0,0,0,0,-0.1738,-0.1736,-0.1718,-0.1709,-0.1705,-0.1694,-0.1691,-0.1692,-0.1664,-0.1671,-0.1668,-0.1665,-0.164,-0.1636,-0.1635,-0.1638,-0.162,-0.162,-0.162,-0.162,-0.1655,-0.1656,0,0,0,0,0,0,-0.1743,-0.1738,-0.1719,-0.1717,-0.1718,-0.1695,-0.1691,-0.1688,-0.1664,-0.1659,-0.1666,-0.1663,-0.1637,-0.1635,-0.1634,-0.1655,-0.162,-0.162,-0.1619,-0.1654,-0.1655,-0.1656,0,0,0,0,0,0,-0.1744,-0.1742,-0.172,-0.1726,-0.1723,-0.1696,-0.1693,-0.1688,-0.1685,-0.1659,-0.1654,-0.1667,-0.1636,-0.1634,-0.1639,-0.1654,-0.1619,-0.1619,-0.1653,-0.1654,-0.1656,-0.1699,0,0,0,0,0,0,-0.1745,-0.1743,-0.1751,-0.1727,-0.1723,-0.1727,-0.1694,-0.1688,-0.1684,-0.168,-0.1659,-0.1655,-0.1635,-0.164,-0.1639,-0.1653,-0.1619,-0.1651,-0.1653,-0.1655,-0.1697,-0.1702,-0.1707,0,0,0,0,0,-0.1746,-0.1765,-0.1751,-0.1749,-0.1732,-0.1728,-0.1725,-0.1702,-0.1686,-0.1693,-0.1676,-0.1656,-0.1652,-0.1641,-0.1639,-0.1653,-0.165,-0.1653,-0.1655,-0.1694,-0.1701,-0.1707,0,0,0,0,0,0,-0.1792,-0.1761,-0.1746,-0.1757,-0.1745,-0.172,-0.1729,-0.171,-0.1703,-0.17,-0.1671,-0.1666,-0.1675,-0.1664,-0.1653,-0.1671,-0.1648,-0.165,-0.1678,-0.1684,-0.1689,-0.1692,-0.1619,0,0,0,0,0,-0.1803,-0.1802,-0.1775,-0.1788,-0.1783,-0.1757,-0.1754,-0.1737,-0.1724,-0.1719,-0.1702,-0.1691,-0.1686,-0.1684,-0.1679,-0.1694,-0.1689,-0.1703,-0.1708,-0.1713,-0.1715,-0.1721,-0.1727,-0.1664,-0.1664,-0.1664,0,0,-0.1827,-0.181,-0.1811,-0.1797,-0.1786,-0.1785,-0.1753,-0.1755,-0.1754,-0.1719,-0.1723,-0.171,-0.1695,-0.1705,-0.1708,-0.1696,-0.1731,-0.1716,-0.1719,-0.172,-0.1724,-0.173,-0.1736,-0.1666,-0.1666,-0.1666,0,0,-0.187,-0.1857,-0.1866,-0.1855,-0.1837,-0.1819,-0.1822,-0.1799,-0.1789,-0.1792,-0.1765,-0.1764,-0.1758,-0.1747,-0.1742,-0.1778,-0.1759,-0.1777,-0.1805,-0.1812,-0.1816,-0.1821,-0.1834,-0.1839,-0.1779,-0.178,-0.178,0,-0.1902,-0.19,-0.1873,-0.1876,-0.187,-0.1836,-0.1845,-0.1835,-0.1817,-0.1814,-0.18,-0.1791,-0.1778,-0.1784,-0.1793,-0.1789,-0.1791,-0.178,-0.1818,-0.1822,-0.1825,-0.1837,-0.1842,-0.1782,-0.1782,-0.1781,-0.1781,0,-0.194,-0.1939,-0.1948,-0.1931,-0.1926,-0.1932,-0.1905,-0.1903,-0.1885,-0.1869,-0.1871,-0.1854,-0.1845,-0.1845,-0.1828,-0.1848,-0.1841,-0.1823,-0.18,-0.1834,-0.1845,-0.1849,-0.1785,-0.1785,-0.1784,-0.1783,0,0,-0.2014,-0.1979,-0.1983,-0.1974,-0.1952,-0.195,-0.1954,-0.1943,-0.1942,-0.193,-0.1932,-0.1926,-0.1909,-0.1902,-0.1883,-0.1888,-0.1918,-0.1869,-0.1868,-0.1879,-0.1939,-0.1953,-0.1959,-0.1904,-0.1905,-0.1905,-0.194,0,-0.2054,-0.2058,-0.2032,-0.2043,-0.2041,-0.2008,-0.2011,-0.1997,-0.1981,-0.1977,-0.1959,-0.1956,-0.1933,-0.1928,-0.1932,-0.1914,-0.193,-0.1911,-0.1906,-0.1906,-0.1912,-0.1965,-0.1981,-0.2015,-0.1944,-0.1945,-0.1945,0,-0.2101,-0.209,-0.2101,-0.2076,-0.2074,-0.2077,-0.2065,-0.2061,-0.2044,-0.2032,-0.2023,-0.2001,-0.2002,-0.1979,-0.1979,-0.1967,-0.1963,-0.1954,-0.1954,-0.1954,-0.1929,-0.1967,-0.2025,-0.203,-0.1952,-0.1951,-0.1951,0,-0.2154,-0.2142,-0.2147,-0.214,-0.2111,-0.2114,-0.2102,-0.2084,-0.2078,-0.2067,-0.2063,-0.2053,-0.2047,-0.2039,-0.2015,-0.2,-0.2018,-0.1993,-0.2008,-0.2009,-0.2015,-0.2015,-0.2074,-0.2011,-0.2011,-0.2011,-0.2011,0,-0.2202,-0.221,-0.217,-0.2173,-0.218,-0.215,-0.2158,-0.2143,-0.2126,-0.2125,-0.2095,-0.2095,-0.2062,-0.2058,-0.2038,-0.2042,-0.2039,-0.2029,-0.2024,-0.2033,-0.2034,-0.2031,-0.2028,-0.2012,-0.2012,-0.2012,-0.2011,0,-0.2264,-0.2237,-0.224,-0.2211,-0.2204,-0.2211,-0.2186,-0.2187,-0.2168,-0.2168,-0.2165,-0.2136,-0.2129,-0.2103,-0.2091,-0.2077,-0.2087,-0.2077,-0.2093,-0.209,-0.2107,-0.2106,-0.2167,-0.2173,-0.2106,-0.2106,-0.2107,0,-0.2296,-0.2301,-0.2273,-0.2269,-0.2258,-0.2254,-0.2248,-0.2217,-0.2212,-0.2192,-0.2196,-0.2186,-0.2177,-0.2168,-0.2145,-0.2135,-0.2124,-0.2146,-0.2123,-0.2131,-0.2125,-0.2126,-0.2126,-0.2152,-0.2153,-0.2154,-0.2154,0,-0.2357,-0.2344,-0.2336,-0.2323,-0.2317,-0.2306,-0.2293,-0.2292,-0.2257,-0.2253,-0.2245,-0.2238,-0.2224,-0.2215,-0.22,-0.2188,-0.2165,-0.2161,-0.2164,-0.2174,-0.2183,-0.2179,-0.2108,-0.2161,-0.216,-0.2159,-0.2159,-0.2159,-0.2406,-0.2409,-0.2388,-0.238,-0.2367,-0.2355,-0.2354,-0.2334,-0.2327,-0.2313,-0.2295,-0.2289,-0.227,-0.2248,-0.2236,-0.2231,-0.2219,-0.2224,-0.2225,-0.2227,-0.2231,-0.2183,-0.2228,-0.2228,-0.2228,-0.2228,-0.2228,0,-0.2466,-0.2451,-0.2444,-0.2426,-0.2419,-0.2397,-0.2381,-0.2377,-0.2372,-0.2356,-0.2347,-0.2337,-0.2327,-0.2303,-0.2291,-0.2291,-0.2281,-0.2289,-0.229,-0.2287,-0.2243,-0.2241,-0.2298,-0.2298,-0.2298,-0.2298,-0.2298,-0.2298,-0.2497,-0.25,-0.2483,-0.2478,-0.2463,-0.2456,-0.2449,-0.2437,-0.2424,-0.2414,-0.2406,-0.2389,-0.2369,-0.2355,-0.2345,-0.2338,-0.2335,-0.2347,-0.2337,-0.2297,-0.229,-0.2284,-0.2282,-0.2347,-0.2347,-0.2382,-0.2382,-0.2382]},{"header":{"parameterUnit":"m.s-1","parameterCategory":1,"la1":30.2991,"la2":30.254,"lo1":-89.0895,"lo2":-89.0444,"dy":0.0017,"dx":0.0017,"nx":28,"ny":28,"refTime":"2023-09-04T21:00:00:Z","depth":0,"parameterNumber":3,"parameterNumberName":"V-component_of_WINDS"},"data":[0,0,0,0,0,0,0,0,0,0,0,0,0,0,0,0,0,0,0,0,0,0,0,0,0,0,0,0,0,0,0,0,0,0,0,0,0,0,0,0,0,0,0,0,0,0,0,0,0,0,0,0,0,0,0,0,0,0,-2.7645,-2.7646,0,-2.7737,-2.7738,-2.7739,-2.7738,-2.7737,-2.7736,-2.7735,-2.7824,-2.7827,-2.7831,0,0,0,0,0,0,0,0,0,0,0,0,0,-2.7463,-2.7466,-2.7645,-2.7646,-2.7647,-2.7737,-2.7738,-2.7739,-2.7739,-2.7737,-2.7736,-2.7734,-2.7823,-2.7827,-2.7831,0,0,0,0,0,0,0,0,0,0,0,0,0,-2.7547,-2.7468,-2.7644,-2.7658,-2.766,-2.7737,-2.7738,-2.774,-2.7739,-2.7737,-2.7735,-2.7734,-2.7821,-2.7826,-2.7832,-2.79,0,0,-2.7848,-2.785,0,0,0,0,0,0,0,0,-2.7542,-2.7554,-2.7655,-2.7657,-2.7659,-2.7724,-2.7707,-2.7793,-2.7739,-2.7709,-2.7735,-2.7733,-2.7792,-2.7799,-2.7821,-2.7904,-2.7908,-2.7848,-2.7851,-2.7854,-2.7855,0,0,0,0,0,0,0,-2.7537,-2.755,-2.7681,-2.7656,-2.7659,-2.7657,-2.7667,-2.7723,-2.7759,-2.7711,-2.7711,-2.7723,-2.7793,-2.7815,-2.7823,-2.7909,-2.7848,-2.7853,-2.7856,-2.7858,-2.8053,-2.8055,0,0,0,0,0,0,-2.7529,-2.7545,-2.7678,-2.7684,-2.7595,-2.7662,-2.7673,-2.7705,-2.7758,-2.7765,-2.7724,-2.7722,-2.7807,-2.7816,-2.7826,-2.7909,-2.7853,-2.7858,-2.7861,-2.8051,-2.8053,-2.8055,0,0,0,0,0,0,-2.7525,-2.7541,-2.7674,-2.7615,-2.7631,-2.7667,-2.7703,-2.7708,-2.7731,-2.7768,-2.7774,-2.7741,-2.7806,-2.7818,-2.7882,-2.7912,-2.7861,-2.7865,-2.8048,-2.8052,-2.8054,-2.8076,0,0,0,0,0,0,-2.752,-2.7539,-2.7567,-2.7615,-2.7635,-2.773,-2.7705,-2.7711,-2.774,-2.7739,-2.7786,-2.7792,-2.7806,-2.7874,-2.7887,-2.7918,-2.787,-2.8046,-2.805,-2.8053,-2.8073,-2.8079,-2.8085,0,0,0,0,0,-2.7513,-2.7568,-2.7568,-2.7584,-2.767,-2.7732,-2.7743,-2.776,-2.7743,-2.777,-2.7794,-2.779,-2.7907,-2.788,-2.7895,-2.7928,-2.8044,-2.8049,-2.8053,-2.807,-2.8078,-2.8085,0,0,0,0,0,0,-2.752,-2.7574,-2.7575,-2.7648,-2.7686,-2.7732,-2.7767,-2.7768,-2.781,-2.7807,-2.7824,-2.7835,-2.7898,-2.7919,-2.7889,-2.7997,-2.7973,-2.7981,-2.7981,-2.7989,-2.7995,-2.7988,-2.7874,0,0,0,0,0,-2.753,-2.7578,-2.7622,-2.7682,-2.7701,-2.7731,-2.7758,-2.7768,-2.7807,-2.7823,-2.7852,-2.7888,-2.7933,-2.7962,-2.8006,-2.8076,-2.8085,-2.8106,-2.8112,-2.8117,-2.8123,-2.8162,-2.8171,-2.8071,-2.807,-2.807,0,0,-2.7551,-2.7587,-2.7615,-2.7684,-2.7714,-2.7762,-2.7744,-2.7795,-2.783,-2.783,-2.7892,-2.7914,-2.7956,-2.8024,-2.8055,-2.8043,-2.8153,-2.8123,-2.8127,-2.813,-2.8167,-2.8177,-2.8185,-2.8074,-2.8073,-2.8073,0,0,-2.7613,-2.7646,-2.7699,-2.773,-2.7778,-2.7797,-2.781,-2.7857,-2.7872,-2.7935,-2.7936,-2.7977,-2.8054,-2.8084,-2.811,-2.8184,-2.8182,-2.8198,-2.823,-2.8267,-2.8275,-2.8282,-2.8308,-2.8317,-2.8204,-2.8204,-2.8204,0,-2.7633,-2.7706,-2.7725,-2.7777,-2.7807,-2.7812,-2.7865,-2.7894,-2.7952,-2.7971,-2.7958,-2.8056,-2.8084,-2.8158,-2.8177,-2.8197,-2.8211,-2.8192,-2.8272,-2.828,-2.8287,-2.8311,-2.8321,-2.8205,-2.8205,-2.8205,-2.8205,0,-2.7728,-2.7778,-2.7815,-2.7874,-2.7908,-2.796,-2.7985,-2.8017,-2.8024,-2.8044,-2.8108,-2.8143,-2.8193,-2.8212,-2.8218,-2.8287,-2.8278,-2.8269,-2.8245,-2.8297,-2.8321,-2.8331,-2.8208,-2.8207,-2.8207,-2.8206,0,0,-2.7796,-2.7865,-2.7878,-2.7905,-2.7958,-2.7996,-2.8048,-2.81,-2.8126,-2.8166,-2.8209,-2.8275,-2.8267,-2.8295,-2.8305,-2.8338,-2.8394,-2.8324,-2.8326,-2.8336,-2.8471,-2.8477,-2.8488,-2.8393,-2.8395,-2.8397,-2.8467,0,-2.7863,-2.7958,-2.7977,-2.8058,-2.8104,-2.811,-2.8155,-2.8191,-2.8212,-2.8253,-2.8274,-2.8321,-2.8307,-2.8324,-2.8357,-2.8381,-2.8421,-2.8376,-2.8432,-2.8434,-2.8421,-2.8501,-2.8508,-2.8572,-2.8477,-2.8478,-2.8479,0,-2.7955,-2.7999,-2.8085,-2.8133,-2.8153,-2.8193,-2.8242,-2.8282,-2.8322,-2.8335,-2.8368,-2.8374,-2.8427,-2.8401,-2.8473,-2.8441,-2.8465,-2.8481,-2.8483,-2.8489,-2.8459,-2.8507,-2.8594,-2.8603,-2.8494,-2.8493,-2.8492,0,-2.7995,-2.8077,-2.8139,-2.8161,-2.8218,-2.8246,-2.827,-2.831,-2.8339,-2.8381,-2.8401,-2.8447,-2.8473,-2.8508,-2.8526,-2.8506,-2.8597,-2.8573,-2.8607,-2.8607,-2.8625,-2.8624,-2.8716,-2.8642,-2.8642,-2.8642,-2.8641,0,-2.8069,-2.8121,-2.8158,-2.8196,-2.8254,-2.8275,-2.8332,-2.8356,-2.8391,-2.8432,-2.8439,-2.8478,-2.85,-2.8542,-2.8556,-2.8613,-2.8624,-2.8635,-2.8638,-2.8634,-2.8633,-2.8649,-2.8645,-2.8644,-2.8644,-2.8643,-2.8643,0,-2.8123,-2.815,-2.8218,-2.8267,-2.828,-2.8321,-2.8362,-2.8398,-2.8419,-2.8472,-2.8485,-2.8517,-2.8566,-2.8589,-2.8649,-2.8659,-2.8723,-2.8723,-2.871,-2.8711,-2.8744,-2.874,-2.885,-2.8865,-2.8781,-2.8782,-2.8783,0,-2.8168,-2.8209,-2.8262,-2.8292,-2.8318,-2.8364,-2.8395,-2.8417,-2.8449,-2.8499,-2.8529,-2.8579,-2.862,-2.8698,-2.8725,-2.8771,-2.8772,-2.8807,-2.8779,-2.8773,-2.8772,-2.8769,-2.8772,-2.8812,-2.8813,-2.8813,-2.8814,0,-2.8244,-2.8256,-2.8301,-2.8352,-2.8389,-2.8429,-2.8468,-2.8491,-2.8519,-2.8554,-2.8605,-2.8637,-2.87,-2.8748,-2.8796,-2.8819,-2.8821,-2.8823,-2.8833,-2.8829,-2.8819,-2.8824,-2.8723,-2.882,-2.8819,-2.8819,-2.8818,-2.8818,-2.8295,-2.8331,-2.8375,-2.8425,-2.8457,-2.8494,-2.8531,-2.8557,-2.8601,-2.8655,-2.8665,-2.8719,-2.8758,-2.8823,-2.8848,-2.889,-2.8881,-2.8896,-2.89,-2.8903,-2.8905,-2.8814,-2.8899,-2.8899,-2.8898,-2.8898,-2.8898,0,-2.8371,-2.8399,-2.8446,-2.8501,-2.8541,-2.8541,-2.8585,-2.8617,-2.8665,-2.8703,-2.8744,-2.8802,-2.885,-2.8882,-2.893,-2.8957,-2.8959,-2.8969,-2.8966,-2.8971,-2.891,-2.8896,-2.8966,-2.8966,-2.8966,-2.8966,-2.8966,-2.8966,-2.8415,-2.8477,-2.8493,-2.8571,-2.8599,-2.8654,-2.8679,-2.8712,-2.8742,-2.8808,-2.8849,-2.887,-2.8905,-2.8955,-2.8999,-2.9006,-2.9023,-2.9034,-2.9041,-2.8983,-2.8976,-2.8969,-2.8956,-2.9037,-2.9037,-2.9099,-2.9099,-2.91]}]]